Flag for Canada Weather past 2 weeks in Lethbridge, Alberta, Canada

Now
54 °F

Passing clouds.


Feels Like: 46 °F
Forecast: 42 / 52 °F
Wind: 37 mph from West

Location: Lethbridge

Current Time: Jan 25, 2015 at 8:27:31 AM

Latest Report: Jan 25, 2015 at 8:00 AM


Visibility: 40 mi

Pressure: 29.83 "Hg

Humidity: 51%

Dew point: 36 °F

Location of LethbridgeLocation

Historic Weather in Lethbridge — Graph

°F

Lethbridge temperature yesterday

Maximum temperature yesterday: 57 °F (at 1:00 PM)
Minimum temperature yesterday: 43 °F (at 9:00 AM)
Average temperature yesterday: 48 °F

Past Weeks' High & Low Weather Summary

 TemperatureHumidityPressure
High57 °F (Jan 24, 1:00 PM)100% (Jan 11, 11:00 PM)30.50 "Hg (Jan 11, 11:00 PM)
Low-4 °F (Jan 12, 2:00 AM)27% (Jan 24, 1:00 PM)29.57 "Hg (Jan 16, 1:00 PM)
Average32 °F67%30.10 "Hg
* Reported Jan 10 7:00 AM — Jan 25 7:00 AM, Lethbridge, Weather by CustomWeather, © 2014

Note: Actual official high and low records may vary slightly from our data, if they occured in-between our weather recording intervals... More about our weather records

Advertising

Lethbridge weather history for previous 24 hours

 ConditionsComfort  
Time TempWeatherWind HumidityBarometerVisibility
7:00 AM
Jan 25
52 °FMostly cloudy.26 mph54%29.85 "Hg14 mi
6:00 AM50 °FPassing clouds.24 mph58%29.88 "Hg15 mi
5:00 AM48 °FPassing clouds.23 mph66%29.89 "Hg9 mi
4:00 AM50 °FClear.23 mph62%29.90 "HgN/A
3:00 AM50 °FClear.23 mph58%29.92 "Hg9 mi
2:00 AM46 °FClear.21 mph66%29.93 "Hg9 mi
1:00 AM46 °FClear.21 mph66%29.95 "Hg9 mi
12:00 AM46 °FOvercast.20 mph62%29.98 "HgN/A
11:00 PM
Jan 24
46 °FPassing clouds.17 mph62%30.00 "Hg9 mi
10:00 PM45 °FPassing clouds.14 mph61%30.04 "Hg15 mi
9:00 PM46 °FPartly cloudy.18 mph53%30.06 "Hg15 mi
8:00 PM46 °FPartly cloudy.22 mph53%30.08 "Hg15 mi
7:00 PM46 °FPassing clouds.21 mph53%30.10 "Hg15 mi
6:00 PM48 °FPassing clouds.22 mph50%30.11 "Hg40 mi
5:00 PM48 °FPartly sunny.21 mph46%30.11 "Hg40 mi
4:00 PM50 °FPartly sunny.21 mph43%30.09 "Hg40 mi
3:00 PM52 °FPartly sunny.21 mph41%30.07 "Hg40 mi
2:00 PM55 °FPartly sunny.21 mph31%30.07 "Hg40 mi
1:00 PM57 °FPassing clouds.23 mph27%30.06 "Hg40 mi
12:00 PM54 °FPassing clouds.18 mph38%30.07 "Hg40 mi
11:00 AM50 °FPassing clouds.7 mph47%30.07 "Hg40 mi
10:00 AM46 °FPassing clouds.6 mph57%30.09 "Hg40 mi
9:00 AM43 °FPassing clouds.12 mph66%30.07 "Hg40 mi
8:00 AM46 °FPassing clouds.28 mph62%29.98 "Hg40 mi
Weather by CustomWeather, © 2014

See weather overviewHow to use our weather pages